Dewpoint
74 74 75 75 75 76 75 75 75 75 75 76 76 76 76 75 75 76 76 76 76 76 76 76 76 76 76 76 76 76 76 77 77 76 76 76 76 76 75 75 74 74 74 74 74 75 75 75 75 75 75 75 75 76 76 76 76 76 76 76 76 76 76 76 75 75 75 75 75 75 75 75 75 75 75 75 74 74 74 75 74 73 73 73 74
74 75 75 75 75 76 76 75 76 76 76 76 76 76 76 75 76 76 77 77 77 76 77 76 76 76 76 76 76 76 76 76 76 77 76 76 76 75 75 75 74 74 74 74 74 74 75 75 75 75 75 75 76 75 75 76 76 76 76 76 76 75 75 75 75 75 75 75 75 75 75 75 75 74 74 74 74 74 74 75 75 74 73 74 74
75 75 75 75 75 75 76 75 75 76 76 75 76 76 76 76 76 77 76 76 76 77 76 76 76 76 76 76 76 76 76 76 76 76 76 76 76 76 75 75 74 74 74 74 74 74 75 75 76 75 75 75 75 76 76 76 76 76 75 75 76 76 76 76 75 74 75 75 75 75 75 75 75 74 74 74 74 73 74 75 75 74 73 74 74
74 74 75 75 76 76 76 76 76 76 76 76 76 76 76 76 75 76 76 76 77 77 76 76 76 76 76 76 76 76 76 76 76 76 76 76 76 76 76 75 74 74 74 74 74 74 74 74 75 75 75 75 76 75 75 75 76 75 76 76 75 76 76 76 76 73 73 75 75 74 75 73 73 74 74 74 74 74 74 75 74 74 74 74 74
73 74 75 75 75 76 76 76 76 76 76 76 76 76 75 76 76 76 75 76 76 76 76 76 76 76 75 75 76 76 76 76 76 76 76 76 76 76 76 75 74 74 74 74 74 74 74 75 75 75 75 75 75 75 75 75 75 76 76 76 76 76 76 76 75 75 75 74 74 75 73 73 73 73 74 73 73 74 74 74 74 74 74 74 74
73 74 75 75 75 76 76 76 76 76 76 76 75 75 75 75 75 75 76 76 75 75 75 75 75 75 75 75 76 76 76 76 76 76 75 75 76 76 76 75 75 74 74 74 74 74 74 74 74 74 75 75 75 75 75 75 75 76 76 75 75 75 75 75 75 74 73 73 74 73 73 73 73 73 73 74 73 73 74 73 73 73 74 74 74
73 73 73 74 74 76 76 76 76 76 76 76 75 75 75 75 75 75 76 76 75 75 75 75 75 75 75 75 75 76 76 76 76 76 76 75 75 75 76 75 74 74 75 74 74 75 75 75 75 75 75 75 75 75 76 76 75 76 75 76 76 75 76 75 75 74 73 73 71 72 72 73 73 73 74 74 73 74 74 73 73 73 73 73 73
71 72 73 74 75 76 76 76 76 76 76 76 75 75 75 75 75 75 75 76 76 75 75 75 75 75 75 75 75 76 75 75 76 75 75 75 75 74 75 75 75 75 75 75 75 76 76 75 75 75 75 75 76 76 76 75 75 76 75 75 76 75 76 76 75 74 74 71 70 71 72 73 73 73 74 74 74 75 74 73 73 73 72 72 72
70 72 73 74 75 76 76 76 76 76 76 76 75 75 75 75 75 74 74 75 75 75 75 75 75 75 75 75 75 75 75 75 75 76 76 75 75 75 75 75 75 75 74 74 75 76 76 75 76 75 76 76 76 76 76 76 75 75 76 75 75 75 75 76 74 75 73 72 71 71 72 72 72 72 74 74 74 74 73 73 74 73 73 73 73
70 72 73 75 75 76 76 76 75 76 75 75 75 75 75 74 74 74 74 74 75 75 75 75 75 75 75 75 75 75 75 74 75 76 76 76 76 75 75 75 74 75 74 75 75 76 76 76 75 75 75 75 75 76 76 75 76 75 76 75 74 74 74 75 74 75 72 72 73 73 73 74 73 72 73 74 74 74 75 75 74 73 73 73 73
71 72 73 74 75 76 76 75 75 75 75 75 75 75 75 74 75 75 75 75 74 75 75 74 75 75 75 75 75 75 74 74 75 75 76 75 76 75 75 74 74 75 75 75 75 76 76 75 75 75 75 75 75 76 76 75 76 75 76 75 75 74 74 74 75 71 72 72 72 73 74 75 73 73 74 74 74 74 75 74 74 74 73 73 72
71 72 74 75 77 76 75 75 75 75 75 75 75 75 75 75 75 75 75 74 75 75 75 75 74 74 75 75 75 74 74 74 75 75 75 75 75 75 75 74 75 75 75 75 75 75 75 75 75 75 76 76 76 76 75 75 74 75 75 76 76 76 74 75 72 71 71 71 72 72 72 72 73 73 74 74 74 74 74 74 74 74 74 73 73
72 73 74 75 75 75 75 76 76 76 75 75 75 75 75 75 75 75 74 75 75 75 75 74 74 74 74 74 74 75 75 74 74 74 75 75 74 75 75 75 74 75 75 75 75 75 75 75 75 76 76 76 76 75 75 75 75 75 75 75 75 75 75 74 70 71 71 72 72 72 73 73 73 75 74 74 74 74 74 74 74 74 74 73 73
73 73 74 74 74 77 76 76 75 75 76 76 75 75 74 74 74 75 74 74 74 74 74 74 74 74 74 74 75 74 74 74 74 74 75 75 75 75 75 75 74 74 75 75 75 75 75 75 75 75 76 76 75 75 75 75 75 74 75 74 75 75 76 74 73 71 72 72 73 73 73 74 73 75 74 74 74 73 73 74 74 74 74 74 73
72 73 74 74 75 75 76 75 75 75 75 75 75 74 74 74 74 74 75 75 74 74 74 73 73 74 74 74 74 74 74 75 74 75 75 75 75 75 75 75 75 75 75 75 74 75 75 75 75 75 75 75 75 74 74 74 74 73 74 74 74 75 75 69 70 71 72 73 73 73 73 73 74 74 73 74 74 74 73 73 73 74 74 74 74
72 73 74 74 74 75 75 76 75 75 75 75 74 75 74 74 74 74 74 74 74 74 75 74 74 74 73 74 74 74 74 75 75 75 74 74 74 75 75 75 75 75 75 75 75 75 75 75 75 75 75 75 75 74 74 73 74 74 74 73 74 75 76 73 68 68 69 71 73 74 73 73 74 74 73 74 73 73 73 73 73 73 73 73 74
72 73 73 74 74 74 74 74 74 75 74 74 74 74 74 73 73 74 74 73 74 74 74 75 74 74 74 74 74 74 75 75 75 74 74 75 75 75 75 75 75 75 75 75 75 75 75 75 75 75 74 74 74 74 74 74 74 75 74 74 75 76 77 74 69 68 70 73 73 72 73 73 73 73 73 73 73 73 72 72 72 72 72 72 72
72 73 73 73 73 73 73 73 73 73 74 74 74 73 74 74 74 74 74 74 74 74 74 74 74 74 74 74 74 74 75 75 75 75 75 75 75 75 76 75 75 75 75 75 75 75 75 75 74 74 75 74 74 74 74 74 74 74 75 74 75 76 76 75 68 69 71 73 72 74 74 73 73 73 73 73 72 72 72 72 72 72 72 72 71
71 72 72 72 73 73 73 73 74 73 73 74 74 74 74 74 74 74 74 74 75 74 74 74 74 74 74 74 74 75 74 75 76 75 75 75 76 76 75 75 75 75 75 74 75 76 76 76 76 75 75 74 73 73 74 73 74 74 74 74 76 75 76 78 69 70 72 72 72 73 73 75 73 73 72 72 72 72 71 72 72 72 72 71 71
71 72 73 73 73 73 73 73 73 73 74 73 74 74 74 74 74 74 74 75 74 74 74 74 74 74 74 75 75 74 74 74 76 76 76 75 75 74 75 75 75 75 75 75 76 76 76 76 75 75 75 75 74 74 74 74 73 74 74 75 75 75 74 73 69 70 71 73 73 73 74 73 73 73 73 73 72 72 72 72 72 72 72 72 71
71 71 72 74 73 73 73 73 73 74 73 74 74 74 74 74 74 74 74 74 74 73 74 74 74 74 74 74 74 73 74 74 75 74 75 75 74 75 75 76 75 75 75 76 76 76 76 76 76 75 75 75 75 75 75 75 75 75 74 74 75 74 73 73 70 72 73 74 75 74 75 73 73 73 73 74 73 72 72 72 72 73 73 72 71
70 71 72 72 73 73 73 73 73 73 74 74 74 74 74 74 73 73 74 73 73 74 74 73 74 74 75 74 73 74 74 74 74 75 75 75 74 74 75 75 75 75 76 75 75 75 76 76 76 75 75 75 75 75 76 76 75 75 75 76 76 75 74 71 69 71 72 73 75 75 74 73 73 72 73 73 73 72 72 73 73 73 73 73 72
69 70 71 71 73 73 73 73 74 74 73 73 74 74 73 73 73 73 74 75 74 74 74 74 74 74 74 74 75 74 74 75 75 75 76 75 74 74 74 75 74 75 75 76 76 76 76 75 76 75 76 76 76 76 76 74 73 77 77 76 75 74 72 69 70 70 71 73 73 74 74 74 73 73 73 73 73 73 72 72 72 73 73 72 72
68 69 71 72 72 73 73 74 74 74 73 73 73 73 73 73 73 73 73 73 73 73 73 73 73 73 74 74 74 74 74 74 75 75 75 74 73 75 75 75 75 75 75 76 76 75 76 76 76 76 77 77 76 75 76 75 73 72 73 73 73 74 68 69 70 70 71 74 74 75 74 73 73 73 73 73 73 73 73 73 73 72 73 72 72
69 70 71 72 72 72 72 73 74 74 73 73 73 73 73 73 73 73 72 73 73 72 72 72 73 73 74 74 74 74 74 74 74 74 74 74 74 74 74 74 74 74 75 74 74 75 75 75 76 77 76 76 76 75 75 74 74 73 73 73 72 71 68 69 69 70 71 73 75 75 74 73 73 73 73 73 73 73 73 73 73 72 72 72 72
70 70 70 71 71 72 72 73 74 74 74 74 73 74 74 73 73 73 73 72 72 71 72 72 73 73 74 73 73 73 73 73 73 73 74 74 74 74 74 74 74 75 76 74 74 74 74 75 75 75 75 75 75 75 74 74 72 71 69 67 67 67 68 69 69 70 71 73 75 75 74 74 73 73 73 74 74 74 74 73 74 74 74 74 74
70 69 70 70 71 72 73 72 72 73 73 74 74 74 73 73 73 74 72 72 72 72 72 72 73 74 73 73 73 73 73 73 73 73 73 74 74 74 74 74 74 74 75 74 73 74 74 74 74 74 74 74 73 73 73 72 70 64 64 67 68 66 67 69 69 70 72 73 76 75 74 74 73 74 73 74 74 74 74 74 74 74 74 74 74
69 70 70 70 71 70 71 72 72 72 73 73 73 73 73 73 73 74 73 74 73 72 72 73 74 73 73 73 73 73 72 73 73 74 74 74 73 73 74 73 73 73 73 73 73 73 74 74 73 73 73 73 73 68 65 66 62 63 65 63 65 64 65 69 68 69 71 72 74 75 75 74 74 74 74 75 75 74 74 75 75 75 75 75 75
68 69 70 71 71 72 72 72 72 72 73 73 72 72 72 72 74 74 74 75 72 71 72 73 73 73 72 73 73 72 72 73 73 73 74 73 73 73 73 72 72 72 73 73 73 72 72 73 73 73 72 72 71 65 66 66 67 66 63 59 62 68 64 68 69 69 70 71 73 74 75 73 74 74 74 75 75 75 75 75 76 76 76 76 76
68 68 70 71 72 73 71 71 72 72 72 72 72 72 73 73 73 73 74 76 72 72 72 73 72 73 73 73 72 72 72 72 72 73 73 74 73 73 75 74 72 72 72 72 72 74 74 73 72 71 70 72 68 64 67 64 64 63 63 60 63 63 64 68 71 71 71 71 72 74 74 74 74 74 75 75 76 76 76 75 75 75 76 76 76
68 69 70 70 72 72 70 71 72 73 72 71 72 73 73 73 73 72 73 74 72 72 72 72 72 73 73 74 75 73 71 72 73 73 74 74 74 73 75 74 72 72 74 73 75 74 73 72 72 72 73 72 70 69 70 66 59 62 65 62 62 64 65 66 70 69 67 68 70 73 76 75 75 74 75 76 76 76 76 76 76 76 76 76 76
67 68 69 70 71 70 70 70 71 71 72 70 73 72 72 73 74 72 72 74 73 72 71 71 72 72 74 73 74 75 75 72 73 74 74 73 73 73 73 74 74 75 75 73 72 74 74 74 74 74 74 73 71 68 67 66 60 58 64 62 64 65 66 66 66 65 65 68 70 71 72 75 76 75 75 76 76 76 77 76 76 76 77 77 77
66 68 69 69 69 70 70 70 70 71 69 70 70 71 71 72 74 73 74 73 73 72 71 70 71 73 74 73 74 74 76 73 73 74 75 72 72 72 73 74 74 74 74 73 74 77 73 73 73 74 74 73 70 69 69 68 62 59 61 60 61 62 65 66 64 65 67 68 69 70 71 74 75 77 77 77 77 77 77 78 78 78 77 77 77
66 69 68 68 69 70 70 70 69 69 69 69 70 70 71 72 72 72 74 72 72 72 71 71 72 73 73 74 75 76 76 74 74 73 73 72 72 72 72 73 74 76 77 76 75 75 75 73 74 73 75 74 70 70 69 66 62 67 66 62 60 63 62 64 60 63 66 69 70 70 71 73 74 74 75 78 78 79 77 78 78 78 78 77 77
67 67 68 68 69 69 69 69 70 69 70 70 70 71 71 71 71 71 72 72 71 69 70 71 71 73 74 75 76 77 76 76 79 74 72 72 71 72 73 73 75 76 76 77 75 77 75 73 75 73 74 74 73 73 71 69 64 64 62 63 61 64 69 60 62 64 65 68 70 70 72 72 73 73 75 75 78 78 78 80 78 77 77 77 77
66 66 67 68 67 68 69 68 69 69 69 70 70 70 70 70 72 75 71 70 68 68 69 70 71 73 74 75 75 76 77 78 78 78 76 76 73 73 75 76 76 76 77 77 77 76 74 76 75 75 73 73 74 72 71 69 67 60 64 64 63 71 67 60 59 60 63 66 67 68 71 73 74 74 76 75 75 76 78 78 77 76 76 77 77
65 66 66 66 67 67 69 67 67 67 69 71 70 70 71 71 71 72 68 67 67 68 69 70 71 72 73 75 76 77 77 78 77 78 77 76 75 74 75 76 78 78 77 76 75 77 75 74 76 77 74 73 74 73 72 71 68 61 63 60 60 69 64 68 66 62 65 66 66 67 69 72 74 77 77 75 75 76 77 79 76 76 76 76 78
65 64 65 65 66 67 67 67 68 69 71 70 70 70 70 71 71 71 72 66 67 69 69 69 70 73 74 75 77 77 77 77 78 78 77 76 76 74 75 76 77 77 77 77 75 74 74 74 74 76 77 75 74 73 72 70 66 59 61 58 65 66 64 66 68 74 64 64 65 65 67 70 72 72 73 74 74 74 74 76 78 76 76 77 78
63 63 64 65 66 67 69 70 69 70 71 71 71 70 71 72 69 69 70 71 70 70 70 71 71 73 74 76 77 77 77 78 77 77 77 76 76 76 75 76 77 77 78 76 75 75 76 76 74 73 76 76 75 74 74 73 66 56 57 61 66 68 67 67 74 63 64 65 63 66 66 69 68 70 70 72 72 74 74 74 76 75 76 77 78
63 65 66 65 67 67 68 70 70 70 71 72 71 70 70 70 68 69 69 71 71 72 71 72 73 74 75 76 77 76 78 78 77 77 78 79 75 76 75 77 77 77 77 75 74 74 75 75 75 77 74 74 74 74 74 70 66 61 65 62 64 65 65 66 67 67 69 64 65 63 64 66 67 68 69 69 71 74 73 73 77 77 75 77 78
65 66 67 67 67 68 69 69 70 71 72 70 69 68 69 69 69 68 68 68 71 71 70 72 73 73 74 76 76 77 77 77 77 78 77 79 79 78 77 77 77 78 78 77 76 75 76 77 76 76 75 72 72 70 71 71 68 62 62 64 62 65 69 69 68 65 62 61 64 63 65 65 65 66 68 68 70 71 73 74 74 76 75 75 77
64 66 66 66 67 68 68 69 70 71 71 70 70 70 70 69 68 68 68 68 71 70 70 71 71 73 75 76 77 76 77 77 78 78 78 78 77 78 77 77 78 77 77 78 75 78 77 75 75 74 75 74 71 68 66 68 67 62 60 61 62 63 67 65 60 59 62 59 62 61 64 63 65 66 68 70 71 71 72 73 74 75 76 77 76
64 66 67 67 67 68 69 70 70 71 71 71 72 70 72 72 72 70 68 68 71 71 70 72 73 74 74 76 76 76 77 77 78 79 77 76 77 77 78 79 78 78 77 76 78 76 77 75 76 72 73 73 72 69 69 67 65 66 69 62 58 59 65 65 61 60 57 56 59 60 63 63 65 66 68 68 69 70 70 73 73 74 75 77 77
64 66 67 67 67 70 69 70 70 70 71 73 74 73 75 73 71 70 72 70 70 73 72 74 72 72 73 76 76 76 77 76 76 76 76 76 77 77 77 78 78 78 77 76 77 75 76 76 75 74 75 72 68 67 72 72 69 67 61 65 63 61 62 62 68 65 61 55 57 59 61 62 64 67 67 67 69 70 73 74 74 74 75 76 77
65 66 66 66 68 70 69 69 70 71 73 76 74 74 74 74 74 73 74 73 73 72 71 72 72 73 74 75 75 76 76 75 76 75 75 75 76 77 77 77 79 78 78 78 77 76 75 75 76 76 73 72 70 70 69 70 71 71 71 67 64 62 60 61 62 61 60 57 54 58 68 58 62 65 67 66 68 69 71 71 73 73 74 75 75
66 66 66 66 68 69 70 70 72 72 73 75 75 75 74 73 73 71 70 72 71 72 69 69 71 71 72 73 74 75 75 75 75 76 76 76 76 77 76 76 76 77 78 77 77 75 76 73 73 73 73 74 73 72 69 70 69 76 74 67 66 60 62 66 60 56 65 58 59 57 57 58 59 63 66 66 67 68 70 68 71 72 73 73 73
65 66 66 66 68 70 70 71 72 72 74 75 76 75 73 73 72 71 72 72 71 73 74 73 71 72 72 72 73 74 75 74 75 77 76 77 77 77 76 77 77 77 79 78 75 73 74 74 77 75 74 75 74 71 69 71 69 71 67 65 69 71 72 62 61 67 58 60 61 59 58 61 62 60 60 63 66 65 67 69 68 70 70 71 71
64 65 66 67 68 71 71 73 73 74 75 75 76 75 73 73 73 72 73 73 72 72 73 73 75 73 73 73 72 74 75 75 74 76 76 77 77 76 77 77 76 76 79 77 75 76 75 76 77 76 75 76 74 73 69 71 67 67 70 68 69 68 66 68 72 62 62 60 58 61 67 59 62 62 64 66 60 62 62 66 67 67 69 71 71
63 64 67 69 70 71 72 73 73 74 74 75 75 75 75 74 73 73 73 73 73 74 75 77 74 73 73 74 75 74 74 76 76 76 76 76 77 76 76 77 78 76 79 75 75 76 75 75 75 76 75 74 74 76 73 72 70 68 69 70 72 69 67 63 67 68 68 65 61 60 61 64 62 59 60 67 64 65 65 68 68 68 72 72 71
63 65 68 69 70 71 72 73 73 73 74 74 74 75 75 74 73 74 73 74 74 72 73 74 75 74 73 75 75 73 74 75 75 76 75 76 75 77 76 76 76 75 75 74 74 75 75 75 75 76 76 75 76 74 74 72 69 70 68 74 69 71 69 69 67 62 65 67 61 62 62 60 60 61 62 61 61 63 67 69 69 68 71 71 69
63 64 68 69 70 71 72 73 73 74 74 74 74 75 74 73 73 73 73 73 74 73 74 75 75 75 74 75 76 73 74 73 74 75 75 75 75 77 74 74 74 79 77 76 74 75 74 74 73 76 76 75 73 74 72 72 71 71 69 67 69 68 68 66 63 66 64 64 62 62 66 66 61 61 64 62 64 64 68 69 67 66 69 71 73